Hourly Data Report for January 17, 2022

KUGAARUK CLIMATE
NUNAVUT
Current Station Operator: ECCC - MSC

68°32'15.060" N
89°47'47.020" W
15.80 m
2303094
71407
NBB

Download Data

Hourly Data (January 2022)
Hourly Data Report for January 17, 2022
TIME
LST
Temp Definition
°C
Dew Point Definition
°C
Rel Hum Definition
%
Precip. Amount Definition
mm

Wind Dir Definition
10's deg

Wind Spd Definition
km/h
Visibility Definition
km
Stn Press Definition
kPa
Hmdx Definition


Wind Chill Definition


Weather Definition


00:00 -30.1 -33.5 72 0.0 23 27   100.53   -45 LegendNANA
01:00 -29.9 -33.5 71 0.0 23 23   100.51   -44 LegendNANA
02:00 -30.0 -33.7 70 0.0 24 20   100.51   -43 LegendNANA
03:00 -31.0 -34.6 70 0.0 24 25   100.48   -46 LegendNANA
04:00 -30.9 -34.5 70 0.0 25 29   100.44   -47 LegendNANA
05:00 -31.3 -35.0 70 0.0 24 32   100.43   -48 LegendNANA
06:00 -32.1 -35.7 70 0.0 22 27   100.45   -48 LegendNANA
07:00 -32.8 -36.4 70 0.0 24 29   100.45   -49 LegendNANA
08:00 -33.3 -37.1 69 0.0 23 30   100.44   -50 LegendNANA
09:00 -33.1 -36.8 70 0.0 23 35   100.37   -51 LegendNANA
10:00 -33.6 -37.2 70 0.0 24 37   100.33   -52 LegendNANA
11:00 -32.7 -36.2 71 0.0 25 39   100.30   -51 LegendNANA
12:00 -33.1 -36.7 70 0.0 25 30   100.33   -50 LegendNANA
13:00 -33.5 -37.1 70 0.0 24 22   100.40   -48 LegendNANA
14:00 -32.9 -36.5 70 0.0 24 24   100.41   -48 LegendNANA
15:00 -32.6 -36.2 70 0.0 24 32   100.38   -49 LegendNANA
16:00 -31.9 -35.6 70 0.0 22 29   100.43   -48 LegendNANA
17:00 -32.3 -36.0 70 0.0 23 28   100.45   -48 LegendNANA
18:00 -32.0 -35.8 69 0.0 25 25   100.44   -47 LegendNANA
19:00 -32.9 -36.6 70 0.0 25 24   100.45   -48 LegendNANA
20:00 -32.0 -35.8 69 0.0 25 22   100.43   -46 LegendNANA
21:00 -32.0 -35.7 70 0.0 25 13   100.45   -43 LegendNANA
22:00 -32.2 -35.8 70 0.0 25 15   100.46   -44 LegendNANA
23:00 -32.9 -36.5 70 0.0 25 18   100.48   -46 LegendNANA

Notes on Data Quality.

Legend

  • E = Estimated
  • M = Missing
  • NA = Not Available*
  • [empty] = Indicates an unobserved value
Date modified: